| time (UTC) | temp C | wind direction | speed KPH | gust KPH | rain 1hr cm | rain 24hr cm | rain mn cm | humidity % | barometer mb |
| 20260506233024 | 20 | 0.0 | 0.0 | 0.00 | 0.00 | 0.00 | 30 | 1009.0 | |
| 20260506232019 | 21 | 0.0 | 0.0 | 0.00 | 0.00 | 0.00 | 30 | 1009.0 | |
| 20260506231052 | 20 | 0.0 | 0.0 | 0.00 | 0.00 | 0.00 | 30 | 1009.2 | |
| 20260506230026 | 21 | 0.0 | 0.0 | 0.00 | 0.00 | 0.00 | 30 | 1009.2 | |
| 20260506225022 | 20 | 0.0 | 1.6 | 0.00 | 0.00 | 0.00 | 30 | 1009.4 | |
| 20260506224016 | 20 | 0.0 | 0.0 | 0.00 | 0.00 | 0.00 | 30 | 1009.4 | |
| 20260506223029 | 20 | 0.0 | 0.0 | 0.00 | 0.00 | 0.00 | 30 | 1009.5 | |
| 20260506222024 | 20 | 0.0 | 0.0 | 0.00 | 0.00 | 0.00 | 30 | 1009.5 | |
| 20260506221039 | 20 | 0.0 | 0.0 | 0.00 | 0.00 | 0.00 | 30 | 1009.7 | |
| 20260506220032 | 20 | 0.0 | 0.0 | 0.00 | 0.00 | 0.00 | 29 | 1009.9 | |
| 20260506215027 | 20 | 0.0 | 0.0 | 0.00 | 0.00 | 0.00 | 30 | 1010.1 | |
| 20260506214021 | 20 | 0.0 | 3.2 | 0.00 | 0.00 | 0.00 | 30 | 1010.2 | |
| 20260506213017 | 20 | 0.0 | 0.0 | 0.00 | 0.00 | 0.00 | 30 | 1010.2 | |
| 20260506212050 | 20 | 0.0 | 0.0 | 0.00 | 0.00 | 0.00 | 30 | 1010.4 | |
| 20260506211024 | 20 | 0.0 | 0.0 | 0.00 | 0.00 | 0.00 | 29 | 1010.6 | |
| 20260506210019 | 20 | 0.0 | 0.0 | 0.00 | 0.00 | 0.00 | 29 | 1010.6 | |
| 20260506205032 | 20 | 0.0 | 1.6 | 0.00 | 0.00 | 0.00 | 30 | 1010.8 | |
| 20260506204022 | 20 | 0.0 | 1.6 | 0.00 | 0.00 | 0.00 | 30 | 1010.8 | |
| 20260506203037 | 18 | 0.0 | 0.0 | 0.00 | 0.00 | 0.00 | 31 | 1010.8 | |
| 20260506202024 | 19 | 0.0 | 0.0 | 0.00 | 0.00 | 0.00 | 30 | 1011.0 | |
| 20260506201019 | 18 | 0.0 | 0.0 | 0.00 | 0.00 | 0.00 | 31 | 1011.2 | |
| 20260506200040 | 18 | 1.6 | 9.7 | 0.00 | 0.00 | 0.00 | 32 | 1011.3 | |
| 20260506195016 | 18 | 0.0 | 0.0 | 0.00 | 0.00 | 0.00 | 32 | 1011.3 | |
| 20260506194049 | 18 | 0.0 | 0.0 | 0.00 | 0.00 | 0.00 | 32 | 1011.4 | |
| 20260506193024 | 18 | 0.0 | 1.6 | 0.00 | 0.00 | 0.00 | 33 | 1011.4 | |
| 20260506192019 | 17 | 0.0 | 0.0 | 0.00 | 0.00 | 0.00 | 32 | 1011.7 | |
| 20260506191032 | 18 | 135 | 0.0 | 1.6 | 0.00 | 0.00 | 0.00 | 33 | 1011.7 |
| 20260506190026 | 17 | 0.0 | 1.6 | 0.00 | 0.00 | 0.00 | 33 | 1012.1 | |
| 20260506185022 | 17 | 135 | 0.0 | 1.6 | 0.00 | 0.00 | 0.00 | 34 | 1012.1 |
| 20260506184016 | 16 | 135 | 0.0 | 3.2 | 0.00 | 0.00 | 0.00 | 35 | 1012.1 |
| 20260506183029 | 16 | 135 | 0.0 | 6.4 | 0.00 | 0.00 | 0.00 | 34 | 1012.1 |
| 20260506182104 | 17 | 0.0 | 4.8 | 0.00 | 0.00 | 0.00 | 34 | 1012.3 | |
| 20260506181019 | 16 | 0.0 | 1.6 | 0.00 | 0.00 | 0.00 | 34 | 1012.2 | |
| 20260506180032 | 16 | 135 | 0.0 | 8.0 | 0.00 | 0.00 | 0.00 | 34 | 1012.4 |
| 20260506175027 | 16 | 0.0 | 0.0 | 0.00 | 0.00 | 0.00 | 35 | 1012.5 | |
| 20260506174022 | 16 | 0.0 | 0.0 | 0.00 | 0.00 | 0.00 | 36 | 1012.7 | |
| 20260506173016 | 15 | 0.0 | 1.6 | 0.00 | 0.00 | 0.00 | 37 | 1012.8 | |
| 20260506172030 | 14 | 135 | 0.0 | 1.6 | 0.00 | 0.00 | 0.00 | 38 | 1012.9 |
| 20260506171025 | 14 | 0.0 | 0.0 | 0.00 | 0.00 | 0.00 | 39 | 1013.3 | |
| 20260506170020 | 14 | 0.0 | 0.0 | 0.00 | 0.00 | 0.00 | 38 | 1013.3 | |
| 20260506165033 | 13 | 0.0 | 0.0 | 0.00 | 0.00 | 0.00 | 39 | 1013.4 | |
| 20260506164023 | 13 | 0.0 | 0.0 | 0.00 | 0.00 | 0.00 | 39 | 1013.5 | |
| 20260506163018 | 13 | 0.0 | 1.6 | 0.00 | 0.00 | 0.00 | 41 | 1013.5 | |
| 20260506162045 | 12 | 0.0 | 0.0 | 0.00 | 0.00 | 0.00 | 41 | 1013.7 | |
| 20260506161020 | 12 | 0.0 | 0.0 | 0.00 | 0.00 | 0.00 | 41 | 1013.8 | |
| 20260506160020 | 12 | 0.0 | 0.0 | 0.00 | 0.00 | 0.00 | 42 | 1013.9 | |
| 20260506155033 | 11 | 0.0 | 0.0 | 0.00 | 0.00 | 0.00 | 42 | 1014.0 | |
| 20260506154028 | 11 | 135 | 0.0 | 1.6 | 0.00 | 0.00 | 0.00 | 43 | 1014.1 |
| 20260506153023 | 11 | 0.0 | 0.0 | 0.00 | 0.00 | 0.00 | 43 | 1014.2 | |
| 20260506152018 | 10 | 0.0 | 0.0 | 0.00 | 0.00 | 0.00 | 42 | 1014.3 | |
| 20260506151031 | 11 | 0.0 | 1.6 | 0.00 | 0.00 | 0.00 | 41 | 1014.5 | |
| 20260506150025 | 10 | 0.0 | 0.0 | 0.00 | 0.00 | 0.00 | 42 | 1014.5 | |
| 20260506145020 | 10 | 0.0 | 3.2 | 0.00 | 0.00 | 0.00 | 44 | 1014.8 | |
| 20260506144015 | 9 | 135 | 0.0 | 3.2 | 0.00 | 0.00 | 0.00 | 44 | 1014.9 |
| 20260506143016 | 8 | 1.6 | 6.4 | 0.00 | 0.00 | 0.00 | 45 | 1014.9 | |
| 20260506142023 | 8 | 113 | 1.6 | 4.8 | 0.00 | 0.00 | 0.00 | 45 | 1014.9 |
| 20260506141038 | 8 | 0.0 | 0.0 | 0.00 | 0.00 | 0.00 | 46 | 1015.1 | |
| 20260506140019 | 7 | 0.0 | 1.6 | 0.00 | 0.00 | 0.00 | 49 | 1015.3 | |
| 20260506135031 | 6 | 95 | 0.0 | 6.4 | 0.00 | 0.00 | 0.00 | 49 | 1015.4 |
| 20260506134027 | 6 | 0.0 | 0.0 | 0.00 | 0.00 | 0.00 | 50 | 1015.5 | |
| 20260506133021 | 5 | 0.0 | 0.0 | 0.00 | 0.00 | 0.00 | 51 | 1015.6 | |
| 20260506132016 | 5 | 0.0 | 3.2 | 0.00 | 0.00 | 0.00 | 52 | 1015.5 | |
| 20260506131029 | 4 | 0.0 | 1.6 | 0.00 | 0.00 | 0.00 | 53 | 1015.6 | |
| 20260506130024 | 4 | 0.0 | 0.0 | 0.00 | 0.00 | 0.00 | 54 | 1015.8 | |
| 20260506125059 | 4 | 0.0 | 0.0 | 0.00 | 0.00 | 0.00 | 54 | 1015.7 | |
| 20260506124020 | 3 | 113 | 0.0 | 3.2 | 0.00 | 0.00 | 0.00 | 54 | 1015.8 |
| 20260506123026 | 3 | 113 | 0.0 | 1.6 | 0.00 | 0.00 | 0.00 | 55 | 1015.9 |
| 20260506122021 | 3 | 0.0 | 0.0 | 0.00 | 0.00 | 0.00 | 56 | 1015.9 | |
| 20260506121016 | 2 | 0.0 | 0.0 | 0.00 | 0.00 | 0.00 | 57 | 1016.1 | |
| 20260506120017 | 2 | 0.0 | 0.0 | 0.00 | 0.00 | 0.00 | 57 | 1016.2 | |
| 20260506115030 | 2 | 0.0 | 0.0 | 0.00 | 0.00 | 0.00 | 58 | 1016.3 | |
| 20260506114025 | 2 | 0.0 | 0.0 | 0.00 | 0.00 | 0.00 | 58 | 1016.4 | |
| 20260506113020 | 2 | 0.0 | 0.0 | 0.00 | 0.00 | 0.00 | 59 | 1016.5 | |
| 20260506112034 | 2 | 0.0 | 0.0 | 0.00 | 0.00 | 0.00 | 59 | 1016.7 | |
| 20260506111029 | 2 | 0.0 | 0.0 | 0.00 | 0.00 | 0.00 | 58 | 1016.7 | |
| 20260506110024 | 2 | 0.0 | 0.0 | 0.00 | 0.00 | 0.00 | 58 | 1016.7 | |
| 20260506105018 | 2 | 0.0 | 0.0 | 0.00 | 0.00 | 0.00 | 58 | 1016.8 | |
| 20260506104032 | 2 | 0.0 | 0.0 | 0.00 | 0.00 | 0.00 | 57 | 1016.9 | |
| 20260506103026 | 2 | 0.0 | 0.0 | 0.00 | 0.00 | 0.00 | 57 | 1017.1 | |
| 20260506102021 | 2 | 0.0 | 0.0 | 0.00 | 0.00 | 0.00 | 57 | 1017.2 | |
| 20260506101016 | 2 | 0.0 | 0.0 | 0.00 | 0.00 | 0.00 | 56 | 1017.1 | |
| 20260506100049 | 3 | 0.0 | 1.6 | 0.00 | 0.00 | 0.00 | 55 | 1017.2 | |
| 20260506095025 | 3 | 0.0 | 0.0 | 0.00 | 0.00 | 0.00 | 55 | 1017.2 | |
| 20260506094019 | 3 | 0.0 | 0.0 | 0.00 | 0.00 | 0.00 | 56 | 1017.4 | |
| 20260506093031 | 3 | 0.0 | 0.0 | 0.00 | 0.00 | 0.00 | 57 | 1017.5 | |
| 20260506092047 | 3 | 0.0 | 1.6 | 0.00 | 0.00 | 0.00 | 57 | 1017.8 | |
| 20260506091022 | 3 | 0.0 | 0.0 | 0.00 | 0.00 | 0.00 | 56 | 1018.1 | |
| 20260506090016 | 3 | 0.0 | 0.0 | 0.00 | 0.00 | 0.00 | 55 | 1017.9 | |
| 20260506085024 | 3 | 0.0 | 0.0 | 0.00 | 0.00 | 0.00 | 54 | 1018.1 | |
| 20260506084025 | 4 | 0.0 | 0.0 | 0.00 | 0.00 | 0.00 | 53 | 1018.2 | |
| 20260506083046 | 3 | 113 | 0.0 | 4.8 | 0.00 | 0.00 | 0.00 | 53 | 1018.3 |
| 20260506082020 | 3 | 0.0 | 0.0 | 0.00 | 0.00 | 0.00 | 53 | 1018.3 | |
| 20260506081015 | 4 | 0.0 | 0.0 | 0.00 | 0.00 | 0.00 | 53 | 1018.6 | |
| 20260506073031 | 4 | 0.0 | 0.0 | 0.00 | 0.00 | 0.00 | 53 | 1019.0 | |
| 20260506072026 | 5 | 0.0 | 0.0 | 0.00 | 0.00 | 0.00 | 52 | 1019.1 | |
| 20260506071021 | 5 | 0.0 | 0.0 | 0.00 | 0.00 | 0.00 | 52 | 1019.2 | |
| 20260506062040 | 5 | 0.0 | 0.0 | 0.00 | 0.00 | 0.00 | 52 | 1019.4 | |
| 20260506061113 | 5 | 0.0 | 0.0 | 0.00 | 0.00 | 0.00 | 52 | 1019.7 | |
| 20260506051032 | 6 | 0.0 | 1.6 | 0.00 | 0.00 | 0.00 | 51 | 1020.1 | |
| 20260506045023 | 7 | 0.0 | 0.0 | 0.00 | 0.00 | 0.00 | 50 | 1020.2 | |
| 20260506044017 | 7 | 0.0 | 0.0 | 0.00 | 0.00 | 0.00 | 49 | 1020.2 | |
| 20260506043045 | 7 | 0.0 | 0.0 | 0.00 | 0.00 | 0.00 | 49 | 1020.2 | |
| 20260506042019 | 7 | 0.0 | 0.0 | 0.00 | 0.00 | 0.00 | 48 | 1020.3 | |
| 20260506041021 | 7 | 0.0 | 0.0 | 0.00 | 0.00 | 0.00 | 48 | 1020.4 | |
| 20260506040015 | 7 | 0.0 | 0.0 | 0.00 | 0.00 | 0.00 | 48 | 1020.5 | |
| 20260506035049 | 8 | 0.0 | 0.0 | 0.00 | 0.00 | 0.00 | 48 | 1020.5 | |
| 20260506034023 | 8 | 0.0 | 0.0 | 0.00 | 0.00 | 0.00 | 48 | 1020.5 | |
| 20260506033018 | 8 | 0.0 | 0.0 | 0.00 | 0.00 | 0.00 | 48 | 1020.5 | |
| 20260506032031 | 8 | 0.0 | 0.0 | 0.00 | 0.00 | 0.00 | 48 | 1020.5 | |
| 20260506031046 | 8 | 0.0 | 0.0 | 0.00 | 0.00 | 0.00 | 47 | 1020.6 | |
| 20260506030041 | 8 | 0.0 | 0.0 | 0.00 | 0.00 | 0.00 | 47 | 1020.6 | |
| 20260506025016 | 8 | 0.0 | 0.0 | 0.00 | 0.00 | 0.00 | 46 | 1020.7 | |
| 20260506024016 | 9 | 0.0 | 0.0 | 0.00 | 0.00 | 0.00 | 45 | 1020.7 | |
| 20260506023023 | 9 | 0.0 | 0.0 | 0.00 | 0.00 | 0.00 | 45 | 1020.7 | |
| 20260506022019 | 9 | 0.0 | 0.0 | 0.00 | 0.00 | 0.00 | 44 | 1020.8 | |
| 20260506021019 | 10 | 0.0 | 0.0 | 0.00 | 0.00 | 0.00 | 43 | 1020.9 | |
| 20260506020113 | 10 | 0.0 | 0.0 | 0.00 | 0.00 | 0.00 | 42 | 1020.9 | |
| 20260506015048 | 10 | 0.0 | 0.0 | 0.00 | 0.00 | 0.00 | 42 | 1021.0 | |
| 20260506014022 | 10 | 0.0 | 0.0 | 0.00 | 0.00 | 0.00 | 42 | 1021.0 | |
| 20260506013017 | 10 | 0.0 | 0.0 | 0.00 | 0.00 | 0.00 | 42 | 1021.1 | |
| 20260506012031 | 11 | 0.0 | 0.0 | 0.00 | 0.00 | 0.00 | 41 | 1021.1 | |
| 20260506011046 | 11 | 0.0 | 0.0 | 0.00 | 0.00 | 0.00 | 41 | 1021.3 | |
| 20260506010020 | 11 | 0.0 | 0.0 | 0.00 | 0.00 | 0.00 | 41 | 1021.3 | |
| 20260506005016 | 11 | 0.0 | 0.0 | 0.00 | 0.00 | 0.00 | 40 | 1021.4 | |
| 20260506004029 | 12 | 0.0 | 0.0 | 0.00 | 0.00 | 0.00 | 39 | 1021.5 | |
| 20260506003024 | 12 | 0.0 | 0.0 | 0.00 | 0.00 | 0.00 | 39 | 1021.5 | |
| 20260506002039 | 13 | 0.0 | 0.0 | 0.00 | 0.00 | 0.00 | 36 | 1021.8 | |
| 20260506001032 | 14 | 0.0 | 0.0 | 0.00 | 0.00 | 0.00 | 36 | 1021.8 | |
| 20260506000026 | 13 | 0.0 | 0.0 | 0.00 | 0.00 | 0.00 | 37 | 1021.9 | |
| 20260505235042 | 13 | 0.0 | 0.0 | 0.00 | 0.00 | 0.00 | 39 | 1022.0 | |
| 20260505234017 | 12 | 0.0 | 0.0 | 0.00 | 0.00 | 0.00 | 39 | 1022.1 |